STARLINK-31733, 59486

Orbit data source: Space-Track

STARLINK-31733, 59486 is a payload satellite owned by SpaceX/Seattle (US) in LEO that was launched on Sat, 13 Apr 2024 UTC via an FALCON 9 launch vehicle from the Air Force Eastern Test Range (AFETR). Payload-class satellites include a variety of spacecraft equipped with specific instruments for various scientific and technological missions. These include communications satellites like Starlink; space stations such as the ISS; scientific satellites like the Hubble; Earth observation satellites from companies like Planet Labs, Umbra, and HawkEye 360; GPS; miniature CubeSats for education and research; and military/defense satellites.

Loading next visibility...
Identifier
59486, 2024-071C
Orbit
LEO
Country
Flag of USUS
Related business
Manufacturer
SpaceX/Seattle
Mission
Operational Commercial Communications
Bus & Motor
STARLINK V2M, Unknown motor
Mass
730 kg wet, ~700 kg dry
Launch date (UTC)
2024-04-13 (2 years ago)
Launch vehicle
FALCON 9
Launch site
Air Force Eastern Test Range (AFETR)
Object type
Payload
Rocket body
Debris
Shape & HBR
Box + 2 Pan, 17.7 m
Radar Cross Section
33.884 m², Large (>1 m²)

Expand to show TLE details & history
Last TLE update: 2 days ago

TLE from 2 days ago
0 STARLINK-31733
1 59486U 24071C   26171.24439705  .00000392  00000-0  23778-4 0  9992
2 59486  43.0028 120.2603 0000976 277.7859  82.2882 15.27578644123894
Epoch: 2026-06-20T05:51Z
TLE epoch observation values (Epoch: 2026-06-20T05:51:55.905Z)
Latitude
0.00001°
Longitude
123.81557°
Altitude
482.739 km
Speed
7.626 km/s
True Right ascension
08h 01m 02s
True Declination
0° 00' 00"
Sunlit
Object was in daylight at epoch
Visualization orbit readout
Latitude
Unknown
Longitude
Unknown
Altitude
Unknown
Speed
Unknown
Apparent Right ascension
Unknown
Apparent Declination
Unknown
Sunlit
N/A
Visualization observer readout
Local Sidereal Time
21:24:11
Azimuth
Unknown
Elevation
Unknown
Doppler factor
Unknown
Orbital elements
Apogee altitude
485.668 km
Perigee altitude
484.328 km
Semi-major axis
6,863.135 km
Eccentricity
0.0001
Inclination
43.0028°
RAAN
120.2603°
Arg. of periapsis
277.7859°
True anomaly
82.29928°
Mean anomaly
82.2882°
Eccentric anomaly
82.29374°
Mean motion
3.81733 °/min
Orbital period
94.31 mins
BSTAR
0.000023778
Loading maneuver chart data...
Computing Atmospheric mass density...
Loading historical data...
Loading historical data...
Loading historical data...
Loading historical data...
Loading historical data...
Loading historical data...
Loading historical data...

Documentation

Showing up to 5 results
|